Weather History for Oshkosh, WI

Change the Weather History Date:

Sunday, June 23, 2013

  Actual Average Record
Temperature  
Mean Temperature 76 °F -  
Max Temperature 86 °F 77 °F 92 °F (1983)
Min Temperature 66 °F 57 °F 41 °F (1979)
Cooling Degree Days 11    
Growing Degree Days 26 (Base 50)    
Moisture  
Dew Point 67 °F    
Average Humidity 76    
Maximum Humidity 94    
Minimum Humidity 63    
Precipitation  
Precipitation 0.08 in - - ()
Sea Level Pressure  
Sea Level Pressure 29.88 in    
Wind  
Wind Speed 8 mph (SSW)    
Max Wind Speed 16 mph    
Max Gust Speed 23 mph    
Visibility 10 miles    
Events Rain    
Averages and records for this station are not official NWS values.
T = Trace of Precipitation, MM = Missing Value Source: NWS Daily Summary

Daily Weather History Graph

Daily Weather History Graph

Search for Another Location

Airport:

Trip Planner

Search our weather history database for the weather conditions in past years. The results will help you decide how hot, cold, wet, or windy it might be!

Date:

Astronomy

Jun. 23, 2013 Rise Set
Actual Time 5:12 AM CDT 8:40 PM CDT
Civil Twilight 4:35 AM CDT 9:17 PM CDT
Nautical Twilight 3:47 AM CDT 10:05 PM CDT
Astronomical Twilight 2:46 AM CDT 11:06 PM CDT
Moon 8:49 PM CDT (6/23) 5:31 AM CDT (6/23)
Length of Visible Light 16h 41m
Length of Day
15h 28m
Full, 100% of the Moon is Illuminated
Jun 23
Full
Jun 29
Last Quarter
Jul 8
New
Jul 15
First Quarter
Jul 22
Full

Hourly Weather History & Observations

Time (CDT) Temp. Heat Index Dew Point Humidity Pressure Visibility Wind Dir Wind Speed Gust Speed Precip Events Conditions
12:53 AM 69.1 °F - 66.0 °F 90% 29.93 in 10.0 mi NNW 4.6 mph - 0.05 in Rain Light Rain
1:53 AM 68.0 °F - 66.0 °F 93% 29.95 in 10.0 mi South 5.8 mph - 0.03 in Rain Light Rain
2:10 AM 68.0 °F - 66.2 °F 94% 29.97 in 10.0 mi South 5.8 mph - 0.00 in Rain Light Rain
2:53 AM 68.0 °F - 64.9 °F 90% 29.90 in 10.0 mi South 8.1 mph - 0.00 in   Scattered Clouds
3:53 AM 66.9 °F - 64.0 °F 90% 29.90 in 10.0 mi SW 6.9 mph - N/A   Clear
4:53 AM 66.0 °F - 63.0 °F 90% 29.89 in 10.0 mi SSE 4.6 mph - N/A   Partly Cloudy
5:53 AM 66.0 °F - 62.1 °F 87% 29.85 in 10.0 mi South 6.9 mph - N/A   Clear
6:53 AM 66.9 °F - 62.1 °F 84% 29.83 in 10.0 mi South 10.4 mph - N/A   Clear
7:53 AM 70.0 °F - 63.0 °F 78% 29.88 in 10.0 mi Calm Calm - N/A   Clear
8:53 AM 71.1 °F - 63.0 °F 75% 29.92 in 10.0 mi Calm Calm - N/A   Clear
9:53 AM 75.9 °F - 64.9 °F 69% 29.92 in 10.0 mi SSW 9.2 mph 23.0 mph N/A   Clear
10:53 AM 80.1 °F 82.7 °F 68.0 °F 67% 29.89 in 10.0 mi SSW 11.5 mph - N/A   Clear
11:53 AM 81.0 °F 84.4 °F 70.0 °F 69% 29.88 in 10.0 mi SSW 13.8 mph 19.6 mph N/A   Clear
12:53 PM 84.0 °F 90.2 °F 73.0 °F 69% 29.87 in 10.0 mi South 16.1 mph 23.0 mph N/A   Clear
1:53 PM 84.0 °F 90.2 °F 73.0 °F 69% 29.86 in 10.0 mi SSW 11.5 mph 21.9 mph N/A   Scattered Clouds
2:53 PM 84.9 °F 91.4 °F 73.0 °F 67% 29.83 in 10.0 mi South 13.8 mph 21.9 mph N/A   Partly Cloudy
3:53 PM 86.0 °F 92.2 °F 72.0 °F 63% 29.80 in 10.0 mi South 16.1 mph - N/A   Partly Cloudy
4:53 PM 84.9 °F 90.7 °F 72.0 °F 65% 29.82 in 10.0 mi SSW 11.5 mph 19.6 mph N/A   Partly Cloudy
5:53 PM 84.0 °F 88.4 °F 70.0 °F 63% 29.83 in 10.0 mi SSW 13.8 mph 23.0 mph N/A   Partly Cloudy
6:53 PM 82.0 °F 86.3 °F 71.1 °F 69% 29.85 in 10.0 mi SSW 9.2 mph 19.6 mph N/A   Clear
7:53 PM 80.1 °F 82.7 °F 68.0 °F 67% 29.86 in 10.0 mi SSW 11.5 mph - N/A   Clear
8:53 PM 75.0 °F - 64.9 °F 71% 29.86 in 10.0 mi SSW 10.4 mph - N/A   Clear
9:53 PM 73.9 °F - 64.9 °F 73% 29.87 in 10.0 mi SSW 10.4 mph 17.3 mph N/A   Clear
10:53 PM 73.9 °F - 64.9 °F 73% 29.88 in 10.0 mi SSW 10.4 mph - N/A   Clear
11:53 PM 72.0 °F - 64.9 °F 78% 29.90 in 10.0 mi SSW 6.9 mph - N/A   Clear